BEIDOU-3 M19 (C41)

Last updated on Thu Nov 21 2024 00:03:16 GMT+0000 (Coordinated Universal Time)

1 44864U 19090A 24325.41986052 -.00000019 00000+0 00000+0 0 9995 2 44864 56.0582 81.8368 0016513 278.9170 53.0001 1.86231493 33549
UTC large
Height (km)
Speed (km/s)
/
Latitude / Longitude
Inclination (degrees)
Orbital Period (minutes)
Azimuth
Elevation
Range (km)
Doppler Factor

Next 0 passes for location: London (51.5072 / 0.1276)

Sorry there are no passes over London.